Flag for Brazil Weather past 2 weeks in Santos, São Paulo, Brazil

Now
64 °F

Partly cloudy.


Feels Like: 64 °F
Forecast: 74 / 85 °F
Wind: 9 mph from Southeast

Location: Sao Paulo Airport

Current Time: Mar 1, 2015 at 5:39:05 AM

Latest Report: Mar 1, 2015 at 5:00 AM


Visibility: N/A

Pressure: 30.12 "Hg

Humidity: 88%

Dew point: 61 °F

Location of SantosLocation

Historic Weather in Santos — Graph

°F

Santos temperature yesterday

Maximum temperature yesterday: 77 °F (at 11:00 AM)
Minimum temperature yesterday: 66 °F (at 9:00 PM)
Average temperature yesterday: 70 °F

Past Weeks' High & Low Weather Summary

 TemperatureHumidityPressure
High88 °F (Feb 14, 2:00 PM)100% (Feb 16, 5:00 PM)30.21 "Hg (Feb 16, 5:00 PM)
Low37 °F (Feb 24, 4:00 PM)35% (Feb 22, 1:00 PM)29.89 "Hg (Feb 27, 4:00 PM)
Average73 °F74%30.06 "Hg
* Reported Feb 14 5:00 AM — Mar 1 4:00 AM, Santos, Weather by CustomWeather, © 2015

Note: Actual official high and low records may vary slightly from our data, if they occured in-between our weather recording intervals... More about our weather records

Advertising

Santos weather history for previous 24 hours

 ConditionsComfort  
Time TempWeatherWind HumidityBarometerVisibility
4:00 AM
Sun, Mar 1
66 °FPartly cloudy.7 mph83%30.12 "HgN/A
3:00 AM64 °FPassing clouds.7 mph88%30.12 "HgN/A
2:00 AM66 °FPartly cloudy.9 mph83%30.12 "HgN/A
1:00 AM66 °FPartly cloudy.10 mph88%30.15 "HgN/A
12:00 AM66 °FPartly cloudy.9 mph88%30.15 "Hg4 mi
11:00 PM
Sat, Feb 28
66 °FPassing clouds.7 mph83%30.15 "HgN/A
10:00 PM66 °FPartly cloudy.10 mph83%30.18 "HgN/A
9:00 PM66 °FPassing clouds.13 mph83%30.15 "HgN/A
8:00 PM68 °FPartly cloudy.13 mph83%30.12 "HgN/A
7:00 PM68 °FPassing clouds.10 mph78%30.12 "HgN/A
6:00 PM68 °FPassing clouds.18 mph83%30.09 "HgN/A
5:00 PM68 °FMostly cloudy.16 mph88%30.09 "HgN/A
4:00 PM68 °FRain. Fog.10 mph88%N/A2 mi
3:00 PM68 °FRain. Broken clouds.12 mphN/AN/A4 mi
2:00 PM72 °FLight rain. Fog.15 mph83%30.07 "Hg3 mi
1:00 PM73 °FScattered showers. Partly sunny.14 mph78%N/AN/A
12:00 PM77 °FPartly sunny.13 mph69%30.09 "HgN/A
11:00 AM77 °FPartly sunny.9 mph65%30.09 "HgN/A
10:00 AM73 °FBroken clouds.8 mph74%30.09 "HgN/A
9:00 AM72 °FPartly sunny.10 mph78%30.07 "HgN/A
8:00 AM72 °FBroken clouds.9 mph78%30.07 "HgN/A
7:00 AM70 °FPartly sunny.12 mph83%30.04 "HgN/A
6:00 AM70 °FPassing clouds.9 mph83%30.01 "HgN/A
5:00 AM70 °FPartly cloudy.10 mph83%30.01 "HgN/A
Weather by CustomWeather, © 2015

See weather overviewHow to use our weather pages